Weather History for PAEN - October, 2012

Change the Weather History Date:

Tuesday, October 9, 2012

  Actual Average Record
Temperature  
Mean Temperature 42 °F -  
Max Temperature 48 °F 44 °F 63 °F (2006)
Min Temperature 37 °F 30 °F 17 °F (1955)
Degree Days  
Heating Degree Days 24    
Moisture  
Dew Point 42 °F    
Average Humidity 98    
Maximum Humidity 100    
Minimum Humidity 86    
Precipitation  
Precipitation 0.01 in - - ()
Sea Level Pressure  
Sea Level Pressure 30.15 in    
Wind  
Wind Speed 3 mph (NNE)    
Max Wind Speed 9 mph    
Max Gust Speed -    
Visibility 6 miles    
Events Fog    
Averages and records for this station are not official NWS values.
T = Trace of Precipitation, MM = Missing Value Source: NWS Daily Summary

Daily Weather History Graph

Daily Weather History Graph

Search for Another Location

Airport or City:

Trip Planner

Search our weather history database for the weather conditions in past years. The results will help you decide how hot, cold, wet, or windy it might be!

Date:

Astronomy

Oct. 09, 2012 Rise Set
Actual Time 8:32 AM AKDT 7:10 PM AKDT
Civil Twilight 7:49 AM AKDT 7:52 PM AKDT
Nautical Twilight 7:00 AM AKDT 8:41 PM AKDT
Astronomical Twilight 6:10 AM AKDT 9:31 PM AKDT
Moon 12:47 AM AKDT (10/9) 5:04 PM AKDT (10/9)
Length of Visible Light 12h 02m
Length of Day
10h 37m
Waning Crescent, 35% of the Moon is Illuminated
Oct 9
Waning Crescent
Oct 15
New
Oct 21
First Quarter
Oct 29
Full
Nov 6
Last Quarter

Hourly Weather History & Observations

Time (AKDT) Temp. Windchill Dew Point Humidity Pressure Visibility Wind Dir Wind Speed Gust Speed Precip Events Conditions
12:03 AM 46.4 °F 44.3 °F 44.6 °F 93% 30.18 in 10.0 mi SSW 4.6 mph - N/A   Overcast
12:53 AM 45.0 °F 42.6 °F 45.0 °F 100% 30.19 in 8.0 mi SSW 4.6 mph - N/A   Overcast
1:27 AM 44.6 °F 43.1 °F 44.6 °F 100% 30.18 in 10.0 mi WSW 3.5 mph - N/A   Overcast
1:53 AM 45.0 °F 43.5 °F 45.0 °F 100% 30.19 in 10.0 mi SSW 3.5 mph - N/A   Overcast
2:53 AM 45.0 °F - 45.0 °F 100% 30.19 in 10.0 mi Calm Calm - N/A   Overcast
3:53 AM 45.0 °F 43.5 °F 45.0 °F 100% 30.18 in 10.0 mi ENE 3.5 mph - N/A   Overcast
4:53 AM 45.0 °F - 45.0 °F 100% 30.18 in 7.0 mi Calm Calm - 0.00 in   Overcast
5:31 AM 44.6 °F - 44.6 °F 100% 30.16 in 1.8 mi Calm Calm - N/A   Overcast
5:53 AM 43.0 °F - 43.0 °F 100% 30.17 in 1.0 mi Calm Calm - N/A   Overcast
6:01 AM 44.6 °F - 44.6 °F 100% 30.16 in 3.0 mi Calm Calm - N/A   Overcast
6:18 AM 44.6 °F - 44.6 °F 100% 30.16 in 1.8 mi Calm Calm - N/A   Overcast
6:36 AM 44.6 °F - 44.6 °F 100% 30.16 in 2.5 mi Calm Calm - N/A   Overcast
6:46 AM 44.6 °F - 44.6 °F 100% 30.16 in 6.0 mi Calm Calm - N/A   Overcast
6:53 AM 44.1 °F - 44.1 °F 100% 30.17 in 2.0 mi Calm Calm - N/A   Overcast
7:00 AM 42.8 °F - 42.8 °F 100% 30.16 in 1.0 mi Calm Calm - N/A   Overcast
7:11 AM 42.8 °F - 42.8 °F 100% 30.16 in 0.8 mi Calm Calm - N/A   Overcast
7:39 AM 42.8 °F - 42.8 °F 100% 30.16 in 0.2 mi Calm Calm - N/A Fog Fog
7:53 AM 42.1 °F - 42.1 °F 100% 30.17 in 0.2 mi Calm Calm - N/A Fog Fog
8:00 AM 42.8 °F - 42.8 °F 100% 30.16 in 0.2 mi Calm Calm - N/A Fog Fog
8:09 AM 42.8 °F - 42.8 °F 100% 30.16 in 0.2 mi Calm Calm - N/A Fog Fog
8:23 AM 42.8 °F 41.1 °F 42.8 °F 100% 30.16 in 1.0 mi North 3.5 mph - N/A   Mist
8:26 AM 42.8 °F 41.1 °F 42.8 °F 100% 30.16 in 3.0 mi North 3.5 mph - N/A   Overcast
8:50 AM 42.8 °F 41.1 °F 42.8 °F 100% 30.16 in 5.0 mi North 3.5 mph - 0.01 in   Overcast
8:53 AM 43.0 °F 41.3 °F 43.0 °F 100% 30.17 in 6.0 mi North 3.5 mph - 0.01 in   Overcast
8:58 AM 42.8 °F 40.1 °F 42.8 °F 100% 30.16 in 6.0 mi North 4.6 mph - N/A   Overcast
9:24 AM 44.6 °F 42.2 °F 44.6 °F 100% 30.16 in 8.0 mi North 4.6 mph - N/A   Overcast
9:53 AM 44.1 °F 40.8 °F 44.1 °F 100% 30.17 in 10.0 mi North 5.8 mph - N/A   Overcast
10:53 AM 45.0 °F 41.8 °F 45.0 °F 100% 30.17 in 10.0 mi North 5.8 mph - N/A   Overcast
11:27 AM 46.4 °F 43.5 °F 44.6 °F 93% 30.16 in 10.0 mi North 5.8 mph - N/A   Overcast
11:53 AM 46.0 °F 41.9 °F 44.1 °F 93% 30.17 in 10.0 mi North 8.1 mph - N/A   Mostly Cloudy
12:53 PM 46.0 °F 41.4 °F 44.1 °F 93% 30.17 in 10.0 mi NNE 9.2 mph - N/A   Overcast
1:53 PM 46.0 °F 43.1 °F 44.1 °F 93% 30.16 in 10.0 mi North 5.8 mph - N/A   Overcast
2:53 PM 46.0 °F - 43.0 °F 89% 30.16 in 10.0 mi Calm Calm - N/A   Overcast
3:53 PM 46.9 °F - 44.1 °F 90% 30.15 in 10.0 mi NNE 5.8 mph - N/A   Overcast
4:53 PM 46.9 °F - 44.1 °F 90% 30.14 in 10.0 mi NNE 6.9 mph - N/A   Overcast
5:00 PM 46.4 °F 42.4 °F 44.6 °F 93% 30.13 in 10.0 mi NE 8.1 mph - N/A   Overcast
5:53 PM 46.9 °F - 43.0 °F 86% 30.14 in 10.0 mi NNE 5.8 mph - N/A   Mostly Cloudy
6:27 PM 46.4 °F 42.9 °F 42.8 °F 87% 30.12 in 10.0 mi NE 6.9 mph - N/A   Scattered Clouds
6:53 PM 46.0 °F 44.8 °F 43.0 °F 89% 30.13 in 10.0 mi East 3.5 mph - N/A   Clear
7:53 PM 42.1 °F - 42.1 °F 100% 30.13 in 10.0 mi Calm Calm - N/A   Partly Cloudy
8:46 PM 39.2 °F - 39.2 °F 100% 30.12 in 2.0 mi Calm Calm - N/A   Clear
8:53 PM 39.0 °F - 39.0 °F 100% 30.12 in 10.0 mi Calm Calm - N/A   Clear
9:12 PM 39.2 °F - 39.2 °F 100% 30.11 in 1.8 mi Calm Calm - N/A   Clear
9:21 PM 39.2 °F - 39.2 °F 100% 30.12 in 3.0 mi Calm Calm - N/A   Clear
9:53 PM 37.9 °F - 37.9 °F 100% 30.12 in 10.0 mi Calm Calm - N/A   Clear
10:44 PM 37.4 °F 34.9 °F 37.4 °F 100% 30.11 in 2.5 mi NNW 3.5 mph - N/A   Partly Cloudy
10:53 PM 37.0 °F - 37.0 °F 100% 30.12 in 8.0 mi Calm Calm - N/A   Partly Cloudy
11:03 PM 37.4 °F - 37.4 °F 100% 30.11 in 1.8 mi Calm Calm - N/A   Mostly Cloudy
11:15 PM 37.4 °F - 37.4 °F 100% 30.11 in 0.5 mi Calm Calm - N/A Fog Fog
11:28 PM 37.4 °F - 37.4 °F 100% 30.11 in 1.0 mi Calm Calm - N/A   Overcast
11:50 PM 37.4 °F - 37.4 °F 100% 30.10 in 2.0 mi Calm Calm - N/A   Mostly Cloudy
11:53 PM 37.0 °F - 37.0 °F 100% 30.11 in 2.5 mi Calm Calm - N/A   Mostly Cloudy